Tracking 25656 objects as of 21-May-2022
HD Live streaming from Space Station
objects crossing your sky now

COSMOS 2251 DEB

Track COSMOS 2251 DEB now!
10-day predictions


NORAD ID: 36381
Int'l Code: 1993-036AZJ
Perigee: 714.9 km
Apogee: 781.8 km
Inclination: 74.0 °
Period: 99.6 minutes
Semi major axis: 7119 km
RCS: 0.0126 m2 (small)
Launch date: June 16, 1993
Source: Commonwealth of Independent States (former USSR) (CIS)
Launch site: PLESETSK MISSILE AND SPACE COMPLEX (PKMTR)

Note: This is SATELLITE DEBRIS
aabbcc
Your satellite tracking list
Your tracking list is empty




NASA's NSSDC Master Catalog

Two Line Element Set (TLE):
1 36381U 93036AZJ 22138.70446481  .00008807  00000-0  24817-2 0  9999
2 36381  74.0192 150.9250 0046941 158.2609 202.0556 14.45245792520339
Source of the keplerian elements: AFSPC